Previsão horária em Barnab

Hoje, 26 Julho, Segunda-feira

Tempo Temperatura Precipitação Vento Pressão Humidade
00:00 +16°C° 0 mm 2 m/s 617 mmHg 91%
01:00 +16°C° 0 mm 1 m/s 617 mmHg 91%
02:00 +16°C° 0 mm 1 m/s 617 mmHg 91%
03:00 +15°C° 0 mm 1 m/s 617 mmHg 91%
04:00 +16°C° 0 mm 1 m/s 617 mmHg 90%
05:00 +16°C° 0 mm 1 m/s 617 mmHg 89%
06:00 +18°C° 0 mm 1 m/s 617 mmHg 89%
07:00 +19°C° 0.1 mm 1 m/s 618 mmHg 84%
08:00 +20°C° 0.1 mm 2 m/s 618 mmHg 79%
09:00 +21°C° 0.1 mm 2 m/s 618 mmHg 74%
10:00 +22°C° 0.3 mm 3 m/s 618 mmHg 71%
11:00 +24°C° 0.3 mm 3 m/s 619 mmHg 68%
12:00 +24°C° 0.3 mm 3 m/s 619 mmHg 65%
13:00 +24°C° 0.4 mm 3 m/s 618 mmHg 65%
14:00 +25°C° 0.4 mm 3 m/s 618 mmHg 64%
15:00 +25°C° 0.4 mm 3 m/s 618 mmHg 64%
16:00 +24°C° 0.3 mm 2 m/s 618 mmHg 66%
17:00 +24°C° 0.3 mm 2 m/s 618 mmHg 69%
18:00 +23°C° 0.3 mm 1 m/s 618 mmHg 72%
19:00 +21°C° 0.2 mm 1 m/s 617 mmHg 77%
20:00 +19°C° 0.2 mm 1 m/s 617 mmHg 82%
21:00 +18°C° 0.2 mm 1 m/s 616 mmHg 87%
22:00 +16°C° 0.3 mm 1 m/s 616 mmHg 88%
23:00 +16°C° 0.3 mm 1 m/s 616 mmHg 89%

Amanhã, 27 Julho, Terça-feira

Tempo Temperatura Precipitação Vento Pressão Humidade
00:00 +16°C° 0.3 mm 1 m/s 616 mmHg 90%
01:00 +16°C° 0.5 mm 1 m/s 616 mmHg 91%
02:00 +16°C° 0.5 mm 1 m/s 616 mmHg 91%
03:00 +16°C° 0.5 mm 1 m/s 616 mmHg 92%
04:00 +16°C° 0.3 mm 1 m/s 616 mmHg 90%
05:00 +18°C° 0.3 mm 1 m/s 616 mmHg 88%
06:00 +18°C° 0.3 mm 1 m/s 616 mmHg 87%
07:00 +19°C° 0.3 mm 2 m/s 616 mmHg 81%
08:00 +20°C° 0.3 mm 2 m/s 616 mmHg 76%
09:00 +21°C° 0.3 mm 2 m/s 616 mmHg 70%
10:00 +23°C° 0.7 mm 2 m/s 616 mmHg 69%
11:00 +23°C° 0.7 mm 2 m/s 616 mmHg 68%
12:00 +24°C° 0.7 mm 3 m/s 616 mmHg 67%
13:00 +24°C° 0.7 mm 2 m/s 616 mmHg 68%
14:00 +23°C° 0.7 mm 2 m/s 615 mmHg 68%
15:00 +23°C° 0.7 mm 2 m/s 615 mmHg 68%
16:00 +21°C° 0.8 mm 2 m/s 615 mmHg 72%
17:00 +20°C° 0.8 mm 2 m/s 615 mmHg 76%
18:00 +20°C° 0.8 mm 1 m/s 614 mmHg 80%
19:00 +19°C° 1.9 mm 1 m/s 614 mmHg 85%
20:00 +18°C° 1.9 mm 1 m/s 614 mmHg 90%
21:00 +16°C° 1.9 mm 1 m/s 614 mmHg 95%
22:00 +15°C° 3.6 mm 2 m/s 614 mmHg 94%
23:00 +15°C° 3.6 mm 2 m/s 614 mmHg 94%

Depois de amanhã, 28 Julho, Quarta-feira

Tempo Temperatura Precipitação Vento Pressão Humidade
00:00 +13°C° 3.6 mm 3 m/s 614 mmHg 94%
01:00 +13°C° 2.7 mm 3 m/s 614 mmHg 94%
02:00 +13°C° 2.7 mm 3 m/s 613 mmHg 94%
03:00 +14°C° 2.7 mm 2 m/s 613 mmHg 93%
04:00 +14°C° 0.8 mm 2 m/s 613 mmHg 93%
05:00 +14°C° 0.8 mm 2 m/s 613 mmHg 93%
06:00 +14°C° 0.8 mm 2 m/s 614 mmHg 92%
07:00 +14°C° 0.8 mm 2 m/s 614 mmHg 93%
08:00 +14°C° 0.8 mm 2 m/s 614 mmHg 94%
09:00 +14°C° 0.8 mm 2 m/s 614 mmHg 95%
10:00 +14°C° 0.9 mm 2 m/s 614 mmHg 95%
11:00 +13°C° 0.9 mm 3 m/s 614 mmHg 95%
12:00 +13°C° 0.9 mm 3 m/s 614 mmHg 95%
13:00 +12°C° 0.6 mm 3 m/s 614 mmHg 95%
14:00 +12°C° 0.6 mm 3 m/s 614 mmHg 94%
15:00 +12°C° 0.6 mm 3 m/s 614 mmHg 94%
16:00 +12°C° 0.3 mm 3 m/s 614 mmHg 94%
17:00 +12°C° 0.3 mm 3 m/s 614 mmHg 94%
18:00 +11°C° 0.3 mm 3 m/s 614 mmHg 93%
19:00 +11°C° 0.2 mm 3 m/s 614 mmHg 94%
20:00 +11°C° 0.2 mm 3 m/s 614 mmHg 95%
21:00 +11°C° 0.2 mm 3 m/s 614 mmHg 95%
22:00 +11°C° 0.4 mm 3 m/s 614 mmHg 95%
23:00 +11°C° 0.4 mm 3 m/s 614 mmHg 95%

29 Julho, Quinta-feira

Tempo Temperatura Precipitação Vento Pressão Humidade
00:00 +11°C° 0.4 mm 3 m/s 614 mmHg 95%
01:00 +10°C° 1 mm 3 m/s 614 mmHg 95%
02:00 +10°C° 1 mm 3 m/s 614 mmHg 95%
03:00 +10°C° 1 mm 2 m/s 613 mmHg 96%
04:00 +12°C° 2.3 mm 2 m/s 614 mmHg 95%
05:00 +12°C° 2.3 mm 2 m/s 614 mmHg 95%
06:00 +12°C° 2.3 mm 1 m/s 614 mmHg 94%
07:00 +13°C° 0.5 mm 1 m/s 614 mmHg 91%
08:00 +14°C° 0.5 mm 1 m/s 615 mmHg 88%
09:00 +14°C° 0.5 mm 1 m/s 615 mmHg 84%
10:00 +15°C° 0.2 mm 1 m/s 615 mmHg 86%
11:00 +15°C° 0.2 mm 2 m/s 615 mmHg 87%
12:00 +15°C° 0.2 mm 2 m/s 615 mmHg 88%
13:00 +15°C° 0.2 mm 2 m/s 615 mmHg 89%
14:00 +15°C° 0.2 mm 1 m/s 615 mmHg 89%
15:00 +15°C° 0.2 mm 1 m/s 615 mmHg 90%
16:00 +15°C° 0.1 mm 1 m/s 615 mmHg 90%
17:00 +15°C° 0.1 mm 1 m/s 615 mmHg 90%
18:00 +14°C° 0.1 mm 0 m/s 615 mmHg 90%
19:00 +14°C° 0 mm 1 m/s 615 mmHg 91%
20:00 +14°C° 0 mm 1 m/s 615 mmHg 91%
21:00 +13°C° 0 mm 1 m/s 615 mmHg 92%
22:00 +13°C° 0 mm 1 m/s 615 mmHg 91%
23:00 +13°C° 0 mm 1 m/s 615 mmHg 90%

30 Julho, Sexta-feira

Tempo Temperatura Precipitação Vento Pressão Humidade
00:00 +13°C° 0 mm 1 m/s 614 mmHg 88%
01:00 +12°C° 0 mm 1 m/s 614 mmHg 88%
02:00 +12°C° 0 mm 1 m/s 614 mmHg 87%
03:00 +11°C° 0 mm 1 m/s 613 mmHg 87%
04:00 +12°C° 0 mm 1 m/s 613 mmHg 86%
05:00 +12°C° 0 mm 1 m/s 614 mmHg 85%
06:00 +13°C° 0 mm 1 m/s 614 mmHg 83%
07:00 +15°C° 0 mm 1 m/s 615 mmHg 79%
08:00 +16°C° 0 mm 1 m/s 615 mmHg 74%
09:00 +19°C° 0 mm 1 m/s 615 mmHg 69%
10:00 +18°C° 0 mm 2 m/s 615 mmHg 69%
11:00 +19°C° 0 mm 2 m/s 615 mmHg 69%
12:00 +19°C° 0 mm 2 m/s 615 mmHg 69%
13:00 +19°C° 0.2 mm 2 m/s 615 mmHg 68%
14:00 +19°C° 0.2 mm 2 m/s 615 mmHg 67%
15:00 +20°C° 0.2 mm 2 m/s 615 mmHg 66%
16:00 +19°C° 0.1 mm 2 m/s 615 mmHg 69%
17:00 +20°C° 0.1 mm 1 m/s 615 mmHg 73%
18:00 +19°C° 0.1 mm 1 m/s 615 mmHg 76%
19:00 +18°C° 0 mm 1 m/s 615 mmHg 81%
20:00 +15°C° 0 mm 1 m/s 614 mmHg 86%
21:00 +13°C° 0 mm 2 m/s 614 mmHg 91%
22:00 +13°C° 0 mm 2 m/s 614 mmHg 90%
23:00 +13°C° 0 mm 2 m/s 614 mmHg 89%

31 Julho, Sábado

Tempo Temperatura Precipitação Vento Pressão Humidade
00:00 +13°C° 0 mm 2 m/s 614 mmHg 88%
01:00 +13°C° 0 mm 2 m/s 614 mmHg 88%
02:00 +12°C° 0 mm 2 m/s 613 mmHg 88%
03:00 +12°C° 0 mm 1 m/s 613 mmHg 88%
04:00 +13°C° 0 mm 1 m/s 613 mmHg 85%
05:00 +13°C° 0 mm 1 m/s 614 mmHg 82%
06:00 +14°C° 0 mm 1 m/s 614 mmHg 79%
07:00 +16°C° 0 mm 1 m/s 614 mmHg 73%
08:00 +18°C° 0 mm 2 m/s 615 mmHg 67%
09:00 +19°C° 0 mm 2 m/s 615 mmHg 62%
10:00 +20°C° 0.1 mm 2 m/s 615 mmHg 62%
11:00 +20°C° 0.1 mm 2 m/s 615 mmHg 62%
12:00 +21°C° 0.1 mm 2 m/s 615 mmHg 62%
13:00 +21°C° 0.7 mm 2 m/s 615 mmHg 63%
14:00 +21°C° 0.7 mm 2 m/s 615 mmHg 63%
15:00 +22°C° 0.7 mm 1 m/s 615 mmHg 64%
16:00 +22°C° 0.6 mm 1 m/s 615 mmHg 67%
17:00 +21°C° 0.6 mm 1 m/s 615 mmHg 71%
18:00 +21°C° 0.6 mm 1 m/s 615 mmHg 74%
19:00 +19°C° 0.2 mm 1 m/s 615 mmHg 76%
20:00 +18°C° 0.2 mm 1 m/s 614 mmHg 79%
21:00 +15°C° 0.2 mm 1 m/s 614 mmHg 82%
22:00 +15°C° 0 mm 1 m/s 614 mmHg 82%
23:00 +15°C° 0 mm 1 m/s 614 mmHg 82%
Mostrar mais